552  
ASUS44 KOUN 230810  
RWROK  
 
WEATHER ROUNDUP FOR OKLAHOMA  
NATIONAL WEATHER SERVICE NORMAN OK  
300 AM CDT FRI OCT 23 2020  
 
NOTE: "FAIR" INDICATES FEW OR NO CLOUDS BELOW 12,000 FEET WITH NO  
SIGNIFICANT WEATHER AND/OR S TO VISIBILITY
.  
 
OKZ001>007-009>012-014-015-017-230900-  
NORTHWEST OKLAHOMA AND THE PANHANDLE  
 
CITY SKY/WX TMP DP RH WIND PRES REMARKS
 
GUYMON CLOUDY 38 30 73 N18 30.20R WCI 28  
ENID/WOODRING CLOUDY 45 36 70 N29G38 30.03R WCI 35  

 
 
OKZ016-021>023-033>039-044-045-230900-  
SOUTHWEST OKLAHOMA  
 
CITY SKY/WX TMP DP RH WIND PRES REMARKS
 
LAWTON/REGL CLOUDY 58 47 66 N23G31 29.97R  
LAWTON/FT SILL CLOUDY 57 47 71 N25G35 29.95R  
FREDERICK TSTM 59 59 100 N25G35 29.95R FOG  
CLINTON LGT RAIN 45 39 79 N18G32 30.08R  
HOBART TSTM 49 45 86 N21 30.04R  
ALTUS AFB LGT RAIN 50 48 93 N18 30.02R  

 
 
OKZ018>020-024>031-230900-  
CENTRAL OKLAHOMA  
 
CITY SKY/WX TMP DP RH WIND PRES REMARKS
 
OKLAHOMA CITY MOCLDY 51 42 71 N24 29.98R  
OKC/WILEY POST CLOUDY 50 40 68 N20G35 30.01R  
OKC/TINKER AFB CLOUDY 53 43 71 NW22G29 29.95R  
STILLWATER CLOUDY 51 43 74 N14G28 29.98R  
GUTHRIE CLOUDY 50 42 74 NW14G23 30.01R  

 
 
OKZ008-013-054>072-230900-  
NORTHEAST OKLAHOMA  
 
CITY SKY/WX TMP DP RH WIND PRES REMARKS
 
TULSA TSTM 71 65 81 VRB3 29.89F  
TULSA/JONES LGT RAIN 73 66 78 S12 29.85F  
PONCA CITY CLOUDY 47 32 56 N18G31 30.02R  
BARTLESVILLE CLOUDY 50 47 89 N10G20 29.97R  
MUSKOGEE MOCLDY 69 64 84 S7 29.92S  

 
 
OKZ032-040>043-046>053-073>077-230900-  
SOUTH CENTRAL/SOUTHEAST OKLAHOMA  
 
CITY SKY/WX TMP DP RH WIND PRES REMARKS
 
ARDMORE/DWNTWN DRIZZLE 68 55 64 S6 29.89R  
MCALESTER MOCLDY 74 65 73 S9G22 29.90S  

 
 
 
 
CLICK HERE TO GO TO PREVIOUS BULLETINS.

The Nexlab OK Page Main Text Page